DW2380 Paimio FI current weather conditions

sailwx.info

Wind from 017 at 1 knots gusting 4

Air temperature 11.1° C
Dewpoint 10.2° C

Last reported at 2014-Sep-21 23:39 UTC.
Time now 2014-Sep-22 00:13 UTC

Location: N 60°28' E 022°40'.
View on Google Maps.

See reports from other nearby stations

  
Tides and Currents Weather Stations Pressure Air Temp Water Temp Dewpoint Dewpoint Depression Visibility Wind Speed Wind Dir Waves Ship Positions
date/time (UTC)wind fromknots sea level pressurealtimeterstation pressurevisibilityair tempwater tempwave heightnotes
2014-Sep-21 23:39 017 1 gusting 4 11.1
2014-Sep-21 23:24 020 0 gusting 3 11.1
2014-Sep-21 23:09 360 11.7
2014-Sep-21 22:54 360 11.7
2014-Sep-21 22:39 360 11.7
2014-Sep-21 22:24 028 11.7
2014-Sep-21 22:09 028 11.7
2014-Sep-21 21:54 028 12.2
2014-Sep-21 21:39 360 0 gusting 6 12.2
2014-Sep-21 21:24 360 1 gusting 4 12.2
2014-Sep-21 21:09 028 12.2
2014-Sep-21 20:54 026 0 gusting 3 12.2
2014-Sep-21 20:39 360 12.2
2014-Sep-21 20:24 022 12.2
2014-Sep-21 20:09 020 11.7
2014-Sep-21 19:54 360 11.7
2014-Sep-21 19:38 360 12.2
2014-Sep-21 19:23 360 12.2
2014-Sep-21 19:08 360 12.2
2014-Sep-21 18:53 360 12.8
2014-Sep-21 18:38 360 12.8
2014-Sep-21 18:23 360 0 gusting 2 12.2
2014-Sep-21 18:08 360 12.8
2014-Sep-21 17:52 360 13.3
2014-Sep-21 17:37 360 12.8
2014-Sep-21 17:22 360 12.8
2014-Sep-21 17:07 360 13.3
2014-Sep-21 16:52 360 13.3
2014-Sep-21 16:37 360 13.3
2014-Sep-21 16:22 360 13.9
2014-Sep-21 16:06 360 13.9
2014-Sep-21 15:51 360 14.4
2014-Sep-21 15:36 360 1 gusting 5 15.0
2014-Sep-21 15:21 031 2 gusting 7 15.0
2014-Sep-21 15:06 360 3 gusting 7 15.0
2014-Sep-21 14:51 360 6 gusting 8 15.6
2014-Sep-21 14:36 360 6 gusting 12 15.6
2014-Sep-21 14:21 360 3 gusting 13 15.6
2014-Sep-21 14:06 360 3 gusting 6 15.6
2014-Sep-21 13:51 360 3 gusting 8 15.6
2014-Sep-21 13:36 360 6 gusting 13 15.6
2014-Sep-21 13:21 360 9 gusting 13 16.1
2014-Sep-21 13:04 360 6 gusting 13 16.7
2014-Sep-21 12:49 360 7 gusting 13 17.2
2014-Sep-21 12:34 360 8 gusting 14 17.2
2014-Sep-21 12:19 360 9 gusting 13 17.8
2014-Sep-21 12:04 360 7 gusting 12 17.8
2014-Sep-21 11:49 360 4 gusting 12 17.8
2014-Sep-21 11:33 360 6 gusting 13 17.8
2014-Sep-21 11:18 360 4 gusting 13 18.3
2014-Sep-21 11:03 360 1 gusting 6 18.3
2014-Sep-21 10:48 360 3 gusting 7 17.2
2014-Sep-21 10:33 360 1 gusting 7 16.7
2014-Sep-21 10:18 360 2 gusting 8 16.1
2014-Sep-21 10:03 360 5 gusting 11 16.7
2014-Sep-21 09:48 360 4 gusting 7 16.7
2014-Sep-21 09:32 360 3 gusting 7 17.2
2014-Sep-21 09:17 360 5 gusting 8 17.8
2014-Sep-21 09:02 360 2 gusting 7 17.8
2014-Sep-21 08:47 360 2 gusting 6 16.1
2014-Sep-21 08:32 360 3 gusting 5 16.1
2014-Sep-21 08:16 360 2 gusting 6 16.1
2014-Sep-21 08:01 360 2 gusting 5 15.6
2014-Sep-21 07:46 360 2 gusting 5 15.0
2014-Sep-21 07:31 360 2 gusting 5 14.4
2014-Sep-21 07:16 360 2 gusting 5 14.4
2014-Sep-21 07:01 360 0 gusting 3 13.9
2014-Sep-21 06:46 360 13.3
2014-Sep-21 06:31 360 12.8
2014-Sep-21 06:16 360 12.2
2014-Sep-21 06:01 360 11.7
2014-Sep-21 05:46 360 11.7
2014-Sep-21 05:29 360 11.7
2014-Sep-21 05:14 360 11.7
2014-Sep-21 04:59 360 11.1
2014-Sep-21 04:44 360 11.1
2014-Sep-21 04:29 360 10.6
2014-Sep-21 04:14 360 11.1
2014-Sep-21 03:59 360 11.1
2014-Sep-21 03:44 360 11.1
2014-Sep-21 03:29 360 11.1
2014-Sep-21 03:14 360 1 gusting 3 11.7
2014-Sep-21 02:59 360 11.1
2014-Sep-21 02:44 360 11.1
2014-Sep-21 02:29 360 11.7
2014-Sep-21 02:14 360 11.7
2014-Sep-21 01:59 360 11.1
2014-Sep-21 01:44 360 11.1
2014-Sep-21 01:29 360 11.1
2014-Sep-21 01:14 360 10.6
2014-Sep-21 00:59 360 10.6
2014-Sep-21 00:44 360 10.6
2014-Sep-21 00:29 360 10.6
2014-Sep-21 00:14 360 10.0
2014-Sep-20 23:59 360 10.0
2014-Sep-20 23:44 360 10.0
2014-Sep-20 23:29 360 8.9
2014-Sep-20 23:13 360 8.9
2014-Sep-20 22:58 360 8.9
2014-Sep-20 22:43 360 8.9
2014-Sep-20 22:28 360 8.9
2014-Sep-20 22:14 360 8.9
2014-Sep-20 21:58 360 8.9
2014-Sep-20 21:43 360 9.4
2014-Sep-20 21:28 360 9.4
2014-Sep-20 21:13 360 9.4
2014-Sep-20 20:58 360 9.4
2014-Sep-20 20:43 360 10.0
2014-Sep-20 20:28 360 10.6
2014-Sep-20 20:13 360 11.1
2014-Sep-20 19:58 360 11.1
2014-Sep-20 19:42 360 11.7
2014-Sep-20 19:27 360 12.2
2014-Sep-20 19:12 360 12.2
2014-Sep-20 18:57 360 12.8
2014-Sep-20 18:42 360 12.8
2014-Sep-20 18:27 360 12.8
2014-Sep-20 18:11 360 12.8
2014-Sep-20 17:56 360 12.8
2014-Sep-20 17:41 360 13.3
2014-Sep-20 17:26 360 13.3
2014-Sep-20 17:11 360 13.3
2014-Sep-20 16:56 360 13.9
2014-Sep-20 16:41 360 0 gusting 5 14.4
2014-Sep-20 16:26 360 15.0
2014-Sep-20 16:11 360 3 gusting 6 15.0
2014-Sep-20 15:56 360 2 gusting 4 15.6
2014-Sep-20 15:41 360 3 gusting 7 15.6
2014-Sep-20 15:26 360 4 gusting 7 15.6
2014-Sep-20 15:09 360 5 gusting 9 16.1
2014-Sep-20 14:54 360 5 gusting 10 16.1
2014-Sep-20 14:39 360 5 gusting 12 16.7
2014-Sep-20 14:24 360 6 gusting 10 16.7
2014-Sep-20 14:09 360 5 gusting 10 17.2
2014-Sep-20 13:54 360 6 gusting 13 17.8
2014-Sep-20 13:39 360 6 gusting 10 17.8
2014-Sep-20 13:24 360 6 gusting 11 17.8
2014-Sep-20 13:08 360 5 gusting 13 18.3
2014-Sep-20 12:53 360 5 gusting 11 18.3
2014-Sep-20 12:38 360 5 gusting 12 18.3
2014-Sep-20 12:23 360 6 gusting 12 18.3
2014-Sep-20 12:08 360 8 gusting 13 18.3
2014-Sep-20 11:53 360 8 gusting 14 18.9
2014-Sep-20 11:37 360 8 gusting 14 18.9
2014-Sep-20 11:22 360 6 gusting 13 18.9
2014-Sep-20 11:07 360 6 gusting 13 18.9
2014-Sep-20 10:52 360 5 gusting 11 18.9
2014-Sep-20 10:37 360 6 gusting 10 19.4
2014-Sep-20 10:22 360 5 gusting 11 18.9
2014-Sep-20 10:06 360 5 gusting 8 18.9
2014-Sep-20 09:51 360 2 gusting 9 18.3
2014-Sep-20 09:36 360 4 gusting 7 16.7
2014-Sep-20 09:21 360 5 gusting 8 16.1
2014-Sep-20 09:06 360 6 gusting 11 16.7
2014-Sep-20 08:51 360 4 gusting 9 15.6
2014-Sep-20 08:36 360 5 gusting 7 15.0
2014-Sep-20 08:21 360 4 gusting 7 15.0
2014-Sep-20 08:06 360 4 gusting 9 15.0
2014-Sep-20 07:51 360 3 gusting 7 15.0
2014-Sep-20 07:35 360 2 gusting 5 14.4
2014-Sep-20 07:21 360 1 gusting 4 13.9
2014-Sep-20 07:04 360 13.3
2014-Sep-20 06:49 360 0 gusting 3 13.3
2014-Sep-20 06:34 360 12.8
2014-Sep-20 06:19 360 0 gusting 1 12.8
2014-Sep-20 06:04 360 12.2
2014-Sep-20 05:49 360 12.2
2014-Sep-20 05:34 360 11.7
2014-Sep-20 05:18 360 11.7
2014-Sep-20 05:03 360 11.7
2014-Sep-20 04:48 360 11.7
2014-Sep-20 04:33 360 11.7
2014-Sep-20 04:18 360 11.7
2014-Sep-20 04:03 360 11.7
2014-Sep-20 03:48 360 11.7
2014-Sep-20 03:33 360 11.7
2014-Sep-20 03:18 360 11.7
2014-Sep-20 03:03 360 11.7
2014-Sep-20 02:48 360 11.7
2014-Sep-20 02:33 360 11.7
2014-Sep-20 02:18 360 11.7
2014-Sep-20 02:03 033 11.1
2014-Sep-20 01:48 032 11.1
2014-Sep-20 01:33 032 11.1
2014-Sep-20 01:18 360 11.1
2014-Sep-20 01:03 360 11.1
2014-Sep-20 00:48 031 11.1
2014-Sep-20 00:33 030 11.1
2014-Sep-20 00:18 030 11.1
2014-Sep-20 00:03 030 10.6